Total_Precipitation_Accumulation
0.93 0.97 0.97 0.99 1.00 0.92 0.86 0.85 0.86 0.83 0.82 0.86 0.89 0.93 0.95 0.96 0.97 0.97 0.95 0.94 0.95 0.95 0.97 0.99 1.02 1.04 1.08 1.09 1.11 1.15 1.21 1.27 1.25 0.92 0.74 0.72 0.75 0.74 0.74 0.68 0.62 0.61 0.60
0.82 0.90 0.87 0.89 0.97 0.94 0.86 0.82 0.81 0.77 0.71 0.71 0.74 0.77 0.78 0.79 0.80 0.83 0.83 0.83 0.82 0.81 0.82 0.87 0.89 0.92 0.96 1.00 1.07 1.12 1.15 1.18 1.20 1.05 0.83 0.74 0.72 0.69 0.66 0.64 0.58 0.54 0.49
0.68 0.73 0.74 0.74 0.80 0.82 0.85 0.84 0.80 0.78 0.72 0.64 0.62 0.63 0.64 0.66 0.67 0.69 0.71 0.71 0.73 0.73 0.73 0.76 0.78 0.84 0.90 0.91 0.94 0.98 0.99 1.01 1.05 1.02 0.85 0.70 0.63 0.60 0.59 0.55 0.50 0.47 0.43
0.50 0.51 0.54 0.59 0.62 0.62 0.64 0.68 0.68 0.68 0.65 0.61 0.57 0.54 0.54 0.57 0.61 0.63 0.65 0.67 0.68 0.69 0.70 0.72 0.74 0.77 0.79 0.81 0.85 0.87 0.87 0.88 0.90 0.92 0.87 0.76 0.69 0.63 0.64 0.60 0.54 0.49 0.45
0.44 0.43 0.45 0.47 0.49 0.51 0.49 0.48 0.48 0.51 0.53 0.53 0.53 0.53 0.51 0.50 0.53 0.57 0.60 0.64 0.66 0.69 0.70 0.71 0.74 0.81 0.82 0.79 0.78 0.77 0.78 0.83 0.88 0.94 0.90 0.77 0.64 0.60 0.59 0.54 0.54 0.53 0.52
0.38 0.40 0.41 0.41 0.41 0.42 0.42 0.41 0.39 0.40 0.43 0.46 0.51 0.55 0.59 0.60 0.73 0.69 0.63 0.64 0.68 0.69 0.68 0.66 0.65 0.70 0.68 0.69 0.68 0.67 0.72 0.80 0.91 0.95 0.85 0.68 0.53 0.47 0.47 0.52 0.57 0.62 0.56
0.30 0.30 0.30 0.32 0.34 0.35 0.38 0.42 0.46 0.51 0.52 0.56 0.60 0.65 0.69 0.76 0.84 0.76 0.71 0.63 0.65 0.66 0.64 0.59 0.55 0.53 0.55 0.48 0.51 0.55 0.57 0.65 0.68 0.61 0.55 0.47 0.44 0.42 0.51 0.61 0.60 0.59 0.48
0.36 0.34 0.31 0.32 0.38 0.43 0.49 0.56 0.65 0.72 0.76 0.80 0.83 0.84 0.84 0.83 0.81 0.72 0.69 0.61 0.58 0.54 0.49 0.44 0.41 0.38 0.36 0.37 0.40 0.48 0.46 0.44 0.43 0.40 0.37 0.35 0.35 0.38 0.48 0.59 0.61 0.60 0.49
0.41 0.45 0.45 0.48 0.55 0.61 0.70 0.79 0.81 0.87 0.87 0.85 0.82 0.80 0.77 0.72 0.67 0.57 0.50 0.43 0.44 0.42 0.37 0.34 0.34 0.32 0.37 0.44 0.44 0.45 0.36 0.31 0.35 0.40 0.42 0.41 0.41 0.41 0.42 0.53 0.64 0.71 0.62
0.51 0.57 0.59 0.61 0.64 0.66 0.68 0.70 0.70 0.69 0.67 0.61 0.57 0.53 0.50 0.47 0.45 0.40 0.37 0.32 0.31 0.29 0.29 0.29 0.34 0.34 0.41 0.48 0.44 0.39 0.33 0.29 0.30 0.34 0.38 0.40 0.38 0.40 0.45 0.45 0.60 0.84 0.73
0.61 0.64 0.65 0.63 0.62 0.58 0.51 0.45 0.43 0.40 0.36 0.32 0.29 0.28 0.25 0.24 0.25 0.25 0.27 0.25 0.26 0.26 0.25 0.26 0.29 0.39 0.45 0.48 0.42 0.33 0.34 0.38 0.34 0.33 0.35 0.37 0.38 0.40 0.42 0.40 0.47 0.80 1.00
0.47 0.43 0.41 0.35 0.32 0.30 0.26 0.24 0.23 0.23 0.22 0.20 0.17 0.16 0.14 0.14 0.15 0.17 0.20 0.23 0.26 0.25 0.24 0.23 0.27 0.39 0.41 0.39 0.37 0.36 0.40 0.39 0.32 0.35 0.37 0.36 0.34 0.33 0.33 0.35 0.37 0.42 0.57
0.17 0.15 0.15 0.14 0.14 0.15 0.14 0.14 0.14 0.15 0.15 0.14 0.14 0.13 0.13 0.12 0.14 0.18 0.21 0.24 0.29 0.28 0.25 0.28 0.31 0.33 0.32 0.32 0.35 0.40 0.39 0.34 0.33 0.36 0.36 0.34 0.32 0.32 0.34 0.38 0.39 0.39 0.38
0.06 0.07 0.07 0.08 0.09 0.09 0.09 0.09 0.10 0.12 0.13 0.14 0.15 0.15 0.15 0.15 0.15 0.18 0.23 0.26 0.30 0.31 0.30 0.30 0.29 0.28 0.28 0.29 0.31 0.33 0.35 0.35 0.39 0.40 0.37 0.34 0.35 0.37 0.40 0.42 0.45 0.45 0.48
0.07 0.08 0.09 0.10 0.11 0.12 0.12 0.13 0.15 0.16 0.18 0.20 0.20 0.20 0.22 0.21 0.20 0.28 0.33 0.33 0.35 0.37 0.39 0.34 0.31 0.30 0.29 0.28 0.28 0.30 0.32 0.35 0.40 0.39 0.42 0.43 0.42 0.41 0.40 0.40 0.46 0.51 0.55
0.09 0.09 0.10 0.11 0.12 0.13 0.14 0.15 0.17 0.19 0.21 0.23 0.22 0.22 0.22 0.23 0.28 0.34 0.36 0.37 0.40 0.46 0.49 0.38 0.31 0.29 0.29 0.29 0.30 0.32 0.35 0.38 0.42 0.47 0.50 0.52 0.54 0.52 0.48 0.41 0.43 0.52 0.53
0.11 0.13 0.14 0.15 0.16 0.17 0.17 0.18 0.19 0.22 0.25 0.25 0.25 0.24 0.24 0.27 0.30 0.33 0.35 0.38 0.40 0.47 0.45 0.34 0.27 0.25 0.26 0.29 0.33 0.37 0.39 0.39 0.46 0.54 0.59 0.63 0.65 0.61 0.56 0.52 0.48 0.50 0.49
0.13 0.14 0.16 0.16 0.17 0.19 0.20 0.20 0.20 0.21 0.22 0.21 0.23 0.28 0.29 0.31 0.33 0.35 0.40 0.45 0.42 0.39 0.33 0.28 0.25 0.26 0.29 0.34 0.38 0.41 0.44 0.46 0.50 0.54 0.58 0.63 0.71 0.72 0.66 0.58 0.55 0.57 0.59
0.12 0.14 0.15 0.16 0.18 0.20 0.21 0.22 0.22 0.22 0.22 0.22 0.22 0.26 0.33 0.37 0.39 0.39 0.42 0.41 0.34 0.28 0.24 0.25 0.28 0.33 0.38 0.41 0.44 0.47 0.51 0.54 0.53 0.57 0.59 0.63 0.71 0.80 0.71 0.60 0.60 0.58 0.63
0.12 0.17 0.20 0.19 0.19 0.20 0.21 0.23 0.23 0.23 0.22 0.22 0.22 0.24 0.34 0.44 0.40 0.35 0.34 0.32 0.30 0.27 0.26 0.30 0.34 0.40 0.47 0.52 0.54 0.55 0.56 0.53 0.54 0.58 0.59 0.62 0.67 0.77 0.78 0.69 0.67 0.68 0.63
0.13 0.17 0.22 0.20 0.18 0.19 0.22 0.24 0.25 0.26 0.25 0.23 0.20 0.25 0.40 0.45 0.38 0.32 0.31 0.33 0.34 0.33 0.33 0.37 0.40 0.46 0.52 0.57 0.59 0.58 0.57 0.53 0.53 0.60 0.64 0.65 0.69 0.73 0.70 0.74 0.74 0.75 0.75
0.14 0.16 0.17 0.18 0.19 0.22 0.26 0.28 0.28 0.28 0.26 0.25 0.23 0.26 0.38 0.38 0.30 0.29 0.29 0.30 0.32 0.36 0.39 0.46 0.48 0.47 0.56 0.65 0.71 0.72 0.62 0.52 0.51 0.61 0.67 0.67 0.70 0.73 0.77 0.82 0.81 0.81 0.77
0.15 0.17 0.18 0.19 0.21 0.26 0.29 0.26 0.27 0.28 0.27 0.26 0.27 0.28 0.31 0.32 0.29 0.27 0.28 0.29 0.32 0.35 0.39 0.45 0.50 0.47 0.48 0.58 0.70 0.88 0.90 0.71 0.63 0.76 0.97 0.97 0.89 0.88 0.89 0.86 0.79 0.78 0.70
0.15 0.18 0.19 0.20 0.23 0.26 0.27 0.26 0.26 0.27 0.28 0.28 0.29 0.29 0.30 0.31 0.31 0.29 0.30 0.32 0.34 0.36 0.38 0.44 0.49 0.48 0.49 0.58 0.64 0.70 0.79 0.89 1.13 1.30 1.38 1.41 1.17 0.94 0.88 0.82 0.75 0.73 0.71
0.17 0.19 0.22 0.25 0.27 0.29 0.29 0.29 0.28 0.28 0.29 0.29 0.30 0.30 0.30 0.31 0.30 0.30 0.31 0.33 0.35 0.36 0.36 0.40 0.46 0.49 0.50 0.53 0.58 0.61 0.67 0.87 1.18 1.38 1.34 1.24 1.04 0.88 0.85 0.81 0.75 0.73 0.71
0.22 0.24 0.26 0.27 0.29 0.29 0.30 0.29 0.28 0.29 0.29 0.29 0.29 0.29 0.30 0.31 0.30 0.30 0.31 0.32 0.34 0.33 0.33 0.35 0.40 0.45 0.48 0.48 0.46 0.52 0.68 0.79 0.82 0.86 1.07 1.16 1.04 0.86 0.84 0.88 0.80 0.76 0.73